[[{"header":{"parameterUnit":"m.s-1","parameterCategory":1,"la1":30.2991,"la2":30.254,"lo1":-89.0895,"lo2":-89.0444,"dy":0.0017,"dx":0.0017,"nx":28,"ny":28,"refTime":"2025-02-04T09:00:00:Z","depth":0,"parameterNumber":2,"parameterNumberName":"U-component_of_WINDS"},"data":[0,0,0,0,0,0,0,0,0,0,0,0,0,0,0,0,0,0,0,0,0,0,0,0,0,0,0,0,0,0,0,0,0,0,0,0,0,0,0,0,0,0,0,0,0,0,0,0,0,0,0,0,0,0,0,0,0,0,-0.8748,-0.8748,0,-0.8782,-0.8783,-0.8783,-0.8803,-0.8803,-0.8803,-0.8803,-0.8838,-0.8839,-0.8839,0,0,0,0,0,0,0,0,0,0,0,0,0,-0.8697,-0.8698,-0.8748,-0.8748,-0.8749,-0.8782,-0.8783,-0.8783,-0.8803,-0.8803,-0.8803,-0.8803,-0.8837,-0.8838,-0.8839,0,0,0,0,0,0,0,0,0,0,0,0,0,-0.8724,-0.8698,-0.8748,-0.8762,-0.8764,-0.8782,-0.8783,-0.8783,-0.8803,-0.8803,-0.8803,-0.8803,-0.8837,-0.8838,-0.884,-0.8846,0,0,-0.8844,-0.8844,0,0,0,0,0,0,0,0,-0.8723,-0.8726,-0.876,-0.8761,-0.8763,-0.8788,-0.8778,-0.8804,-0.8803,-0.8788,-0.8803,-0.8803,-0.8821,-0.8824,-0.883,-0.8847,-0.8849,-0.8844,-0.8844,-0.8845,-0.8845,0,0,0,0,0,0,0,-0.8721,-0.8725,-0.8762,-0.876,-0.8762,-0.8767,-0.8771,-0.8783,-0.8804,-0.8789,-0.8791,-0.8795,-0.8822,-0.8829,-0.8831,-0.8849,-0.8844,-0.8845,-0.8846,-0.8846,-0.8872,-0.8872,0,0,0,0,0,0,-0.8717,-0.8723,-0.876,-0.8763,-0.8743,-0.8768,-0.8772,-0.878,-0.8804,-0.8807,-0.8795,-0.8795,-0.8826,-0.8829,-0.8832,-0.884,-0.8845,-0.8846,-0.8847,-0.8872,-0.8872,-0.8872,0,0,0,0,0,0,-0.8716,-0.872,-0.8759,-0.8743,-0.8749,-0.8768,-0.8777,-0.8781,-0.8788,-0.8807,-0.8811,-0.8798,-0.8827,-0.883,-0.8842,-0.8842,-0.8847,-0.8848,-0.8872,-0.8872,-0.8872,-0.8856,0,0,0,0,0,0,-0.8714,-0.8719,-0.8722,-0.8743,-0.8749,-0.8768,-0.8777,-0.8781,-0.879,-0.8791,-0.8811,-0.8815,-0.8827,-0.884,-0.8843,-0.8843,-0.8849,-0.8872,-0.8872,-0.8872,-0.8857,-0.8855,-0.8854,0,0,0,0,0,-0.8712,-0.8717,-0.8722,-0.8727,-0.8753,-0.8768,-0.8772,-0.8786,-0.879,-0.8792,-0.8805,-0.8814,-0.8841,-0.8841,-0.8845,-0.8845,-0.8872,-0.8872,-0.8872,-0.8857,-0.8856,-0.8854,0,0,0,0,0,0,-0.8696,-0.872,-0.8726,-0.8738,-0.8751,-0.8772,-0.8776,-0.8784,-0.8797,-0.8797,-0.8814,-0.8819,-0.8828,-0.8838,-0.8837,-0.8852,-0.8858,-0.8858,-0.8845,-0.8844,-0.8843,-0.884,-0.885,0,0,0,0,0,-0.8693,-0.8704,-0.8724,-0.8732,-0.8738,-0.8756,-0.8763,-0.8773,-0.8787,-0.8793,-0.8806,-0.8819,-0.8831,-0.8838,-0.8849,-0.8858,-0.8862,-0.886,-0.8859,-0.8858,-0.8858,-0.8863,-0.8862,-0.8871,-0.8871,-0.8871,0,0,-0.8689,-0.8703,-0.8709,-0.8729,-0.8741,-0.875,-0.876,-0.8771,-0.8778,-0.8794,-0.8806,-0.8816,-0.8832,-0.8841,-0.8846,-0.885,-0.8857,-0.8858,-0.8857,-0.8858,-0.8862,-0.8861,-0.8861,-0.8871,-0.8871,-0.8871,0,0,-0.8685,-0.8697,-0.8705,-0.8716,-0.8733,-0.8744,-0.8746,-0.8765,-0.8772,-0.8784,-0.8796,-0.8804,-0.8824,-0.8834,-0.8842,-0.8841,-0.8849,-0.8844,-0.8838,-0.8842,-0.8841,-0.8841,-0.8839,-0.8839,-0.8844,-0.8844,-0.8844,0,-0.8677,-0.8693,-0.8708,-0.8717,-0.8725,-0.874,-0.8747,-0.8757,-0.8777,-0.8782,-0.8785,-0.8809,-0.8821,-0.8833,-0.8832,-0.8838,-0.884,-0.8842,-0.884,-0.884,-0.8839,-0.8838,-0.8838,-0.8844,-0.8844,-0.8844,-0.8844,0,-0.8682,-0.8692,-0.8696,-0.8715,-0.8723,-0.8732,-0.8747,-0.8754,-0.8763,-0.8773,-0.8784,-0.8799,-0.8813,-0.8817,-0.8825,-0.8829,-0.8831,-0.8837,-0.8843,-0.8837,-0.8837,-0.8837,-0.8842,-0.8843,-0.8843,-0.8843,0,0,-0.867,-0.8695,-0.8696,-0.8704,-0.8723,-0.8731,-0.874,-0.8754,-0.8759,-0.8771,-0.8778,-0.8794,-0.8799,-0.8808,-0.8818,-0.8821,-0.8818,-0.8827,-0.8828,-0.8824,-0.8823,-0.8818,-0.8817,-0.8824,-0.8824,-0.8824,-0.8821,0,-0.8669,-0.8685,-0.8698,-0.8709,-0.8718,-0.8731,-0.8738,-0.875,-0.876,-0.8769,-0.878,-0.879,-0.8797,-0.8802,-0.8806,-0.8818,-0.8818,-0.8818,-0.883,-0.883,-0.8826,-0.8817,-0.8812,-0.8809,-0.8821,-0.8821,-0.8821,0,-0.867,-0.8682,-0.8693,-0.871,-0.8714,-0.8721,-0.8734,-0.8742,-0.8756,-0.8762,-0.8771,-0.8781,-0.879,-0.8795,-0.8807,-0.8807,-0.8812,-0.8818,-0.8818,-0.882,-0.8825,-0.8818,-0.8808,-0.8807,-0.8821,-0.8821,-0.8821,0,-0.8659,-0.8678,-0.8687,-0.8693,-0.8713,-0.8717,-0.8726,-0.8739,-0.8746,-0.8757,-0.8762,-0.8774,-0.878,-0.8789,-0.8802,-0.8804,-0.8812,-0.8818,-0.8817,-0.8817,-0.8818,-0.8818,-0.8809,-0.8822,-0.8822,-0.8822,-0.8822,0,-0.8657,-0.8663,-0.8682,-0.8688,-0.8695,-0.8709,-0.8716,-0.8726,-0.8737,-0.8744,-0.8756,-0.8763,-0.8779,-0.8787,-0.8797,-0.8805,-0.8808,-0.8813,-0.8816,-0.8812,-0.8811,-0.8816,-0.8816,-0.8822,-0.8822,-0.8822,-0.8822,0,-0.8646,-0.8659,-0.867,-0.8687,-0.8692,-0.8696,-0.8711,-0.8717,-0.8726,-0.8735,-0.8738,-0.8754,-0.8764,-0.8777,-0.8792,-0.8798,-0.8804,-0.8809,-0.88,-0.8801,-0.8799,-0.8799,-0.8792,-0.8792,-0.8806,-0.8806,-0.8806,0,-0.8644,-0.8649,-0.8666,-0.8672,-0.868,-0.8689,-0.8696,-0.8709,-0.8716,-0.8731,-0.8734,-0.8745,-0.8755,-0.877,-0.8782,-0.8793,-0.8797,-0.8794,-0.8799,-0.8795,-0.8796,-0.8796,-0.8796,-0.8793,-0.8793,-0.8793,-0.8792,0,-0.8638,-0.8643,-0.8653,-0.8664,-0.8672,-0.8682,-0.8692,-0.8696,-0.8711,-0.8718,-0.8728,-0.8735,-0.8749,-0.876,-0.8772,-0.878,-0.8789,-0.8791,-0.8791,-0.8787,-0.8781,-0.8784,-0.8796,-0.8791,-0.8791,-0.8791,-0.8791,-0.8791,-0.8631,-0.8635,-0.8648,-0.8658,-0.8667,-0.8675,-0.8681,-0.8691,-0.87,-0.8712,-0.872,-0.8729,-0.8741,-0.8759,-0.8766,-0.8774,-0.8777,-0.8778,-0.8778,-0.8777,-0.8776,-0.878,-0.8776,-0.8776,-0.8776,-0.8776,-0.8776,0,-0.8625,-0.8633,-0.8642,-0.8655,-0.8662,-0.8669,-0.8681,-0.8686,-0.8694,-0.8705,-0.8713,-0.8724,-0.8734,-0.8747,-0.8757,-0.8761,-0.8765,-0.8763,-0.8763,-0.8764,-0.8773,-0.8771,-0.8759,-0.8759,-0.8759,-0.8759,-0.8759,-0.8759,-0.8622,-0.863,-0.8637,-0.8649,-0.8657,-0.8667,-0.8672,-0.868,-0.8688,-0.87,-0.8708,-0.8716,-0.8727,-0.8738,-0.8747,-0.875,-0.8753,-0.875,-0.8755,-0.8762,-0.8764,-0.8765,-0.8764,-0.8751,-0.8751,-0.8746,-0.8746,-0.8746]},{"header":{"parameterUnit":"m.s-1","parameterCategory":1,"la1":30.2991,"la2":30.254,"lo1":-89.0895,"lo2":-89.0444,"dy":0.0017,"dx":0.0017,"nx":28,"ny":28,"refTime":"2025-02-04T09:00:00:Z","depth":0,"parameterNumber":3,"parameterNumberName":"V-component_of_WINDS"},"data":[0,0,0,0,0,0,0,0,0,0,0,0,0,0,0,0,0,0,0,0,0,0,0,0,0,0,0,0,0,0,0,0,0,0,0,0,0,0,0,0,0,0,0,0,0,0,0,0,0,0,0,0,0,0,0,0,0,0,2.9618,2.9619,0,2.9687,2.9688,2.9689,2.9682,2.9681,2.968,2.9679,2.9745,2.9748,2.9751,0,0,0,0,0,0,0,0,0,0,0,0,0,2.9478,2.948,2.9618,2.9619,2.962,2.9687,2.9688,2.9689,2.9682,2.9681,2.968,2.9678,2.9745,2.9748,2.9751,0,0,0,0,0,0,0,0,0,0,0,0,0,2.9542,2.9481,2.9618,2.9625,2.9626,2.9687,2.9688,2.9689,2.9682,2.9681,2.9679,2.9678,2.9743,2.9747,2.9752,2.9809,0,0,2.9764,2.9766,0,0,0,0,0,0,0,0,2.9538,2.9547,2.9623,2.9624,2.9626,2.9674,2.9663,2.9729,2.9683,2.9661,2.9679,2.9677,2.9723,2.9729,2.9745,2.9812,2.9815,2.9765,2.9767,2.9769,2.977,0,0,0,0,0,0,0,2.9534,2.9544,2.9645,2.9624,2.9626,2.9623,2.9631,2.9675,2.97,2.9663,2.9662,2.9671,2.9723,2.9741,2.9746,2.9816,2.9764,2.9768,2.9771,2.9772,2.9933,2.9935,0,0,0,0,0,0,2.9528,2.954,2.9643,2.9647,2.9577,2.9627,2.9635,2.966,2.9699,2.9704,2.9672,2.967,2.9735,2.9742,2.9749,2.9819,2.9769,2.9773,2.9775,2.9932,2.9934,2.9936,0,0,0,0,0,0,2.9525,2.9537,2.964,2.9594,2.9607,2.9631,2.9659,2.9663,2.968,2.9707,2.971,2.9686,2.9734,2.9743,2.9794,2.9821,2.9775,2.9778,2.993,2.9932,2.9935,2.9959,0,0,0,0,0,0,2.9521,2.9536,2.9559,2.9594,2.9609,2.9686,2.9661,2.9665,2.9688,2.9686,2.972,2.9724,2.9733,2.9788,2.9798,2.9826,2.9782,2.9927,2.9931,2.9934,2.9956,2.9963,2.9968,0,0,0,0,0,2.9516,2.9562,2.956,2.9573,2.9639,2.9688,2.9696,2.9706,2.969,2.9713,2.973,2.9723,2.9816,2.9793,2.9805,2.9834,2.9926,2.993,2.9934,2.9954,2.9961,2.9968,0,0,0,0,0,0,2.9528,2.9567,2.9565,2.9625,2.9653,2.9686,2.9715,2.9714,2.9746,2.9743,2.9753,2.9761,2.9813,2.9828,2.9802,2.9892,2.9869,2.9875,2.988,2.9887,2.9893,2.9889,2.9785,0,0,0,0,0,2.9538,2.9576,2.9607,2.9656,2.9671,2.9691,2.9712,2.9718,2.9747,2.9759,2.9779,2.9807,2.9843,2.9866,2.99,2.9958,2.9966,2.9984,2.999,2.9994,3.0,3.0033,3.0041,2.9949,2.9949,2.9949,0,0,2.9558,2.9584,2.9607,2.9659,2.9682,2.972,2.9701,2.9742,2.977,2.9764,2.9815,2.9831,2.9862,2.9918,2.9943,2.9933,3.0027,3.0,3.0003,3.0006,3.0038,3.0046,3.0054,2.9952,2.9951,2.9951,0,0,2.9615,2.9638,2.9682,2.9706,2.9741,2.9754,2.9764,2.9798,2.9809,2.986,2.9857,2.989,2.9951,2.9974,2.9993,3.0059,3.0054,3.0069,3.01,3.0131,3.0139,3.0145,3.0169,3.0178,3.0074,3.0075,3.0075,0,2.9635,2.9694,2.9704,2.9747,2.977,2.9768,2.9812,2.9834,2.9878,2.9893,2.988,2.9957,2.9978,3.0039,3.0056,3.0071,3.0083,3.0066,3.0137,3.0144,3.015,3.0173,3.0182,3.0076,3.0076,3.0076,3.0076,0,2.9717,2.9758,2.9789,2.9833,2.986,2.9902,2.9919,2.9944,2.9947,2.9961,3.0013,3.0038,3.0077,3.0092,3.0094,3.0153,3.0146,3.0135,3.0112,3.016,3.0182,3.0191,3.0079,3.0078,3.0078,3.0077,0,0,2.9784,2.9834,2.9845,2.9866,2.9904,2.9935,2.9978,3.0018,3.0039,3.0069,3.0105,3.0157,3.0147,3.0169,3.0174,3.0202,3.0253,3.0188,3.0189,3.02,3.032,3.0329,3.0339,3.025,3.0252,3.0253,3.0318,0,2.9845,2.9922,2.9933,3.0,3.0038,3.0037,3.0073,3.0101,3.0115,3.0148,3.0162,3.0199,3.0184,3.0197,3.0225,3.0241,3.0277,3.0236,3.0283,3.0284,3.0276,3.035,3.0359,3.0419,3.0326,3.0327,3.0329,0,2.9927,2.9961,3.0033,3.0067,3.0083,3.0116,3.0154,3.0186,3.0216,3.0224,3.025,3.0251,3.0294,3.0269,3.0328,3.03,3.0319,3.033,3.0333,3.0338,3.031,3.0358,3.0438,3.0447,3.0342,3.0341,3.034,0,2.9969,3.0033,3.0084,3.0102,3.0143,3.0166,3.0184,3.0213,3.0236,3.0268,3.0284,3.032,3.034,3.0367,3.0379,3.0359,3.0437,3.0413,3.0445,3.0445,3.0462,3.0461,3.0547,3.0473,3.0473,3.0473,3.0472,0,3.0037,3.0081,3.0104,3.0136,3.0185,3.0197,3.0244,3.0261,3.0287,3.0321,3.0321,3.0353,3.0365,3.0399,3.0407,3.0455,3.0464,3.0471,3.0473,3.0472,3.0471,3.0485,3.0482,3.0475,3.0475,3.0474,3.0474,0,3.0093,3.0111,3.0167,3.0201,3.0211,3.0246,3.0274,3.0305,3.0318,3.0362,3.0372,3.0393,3.0433,3.0446,3.0494,3.0499,3.0555,3.0553,3.0546,3.0546,3.0578,3.0575,3.0677,3.0691,3.0607,3.0608,3.0608,0,3.0136,3.017,3.0209,3.0233,3.0252,3.029,3.0314,3.0326,3.0351,3.0389,3.0414,3.0454,3.0486,3.0549,3.0568,3.0604,3.0603,3.0636,3.0608,3.0606,3.0604,3.0603,3.0606,3.0642,3.0642,3.0643,3.0644,0,3.021,3.0217,3.0253,3.0292,3.0322,3.0353,3.0383,3.0402,3.0418,3.0446,3.0487,3.0512,3.0561,3.0601,3.0638,3.0654,3.0652,3.0652,3.0662,3.0661,3.0656,3.066,3.0561,3.065,3.0649,3.0649,3.0649,3.0648,3.0262,3.0292,3.0325,3.0365,3.0389,3.0417,3.0447,3.0465,3.05,3.0542,3.0547,3.0591,3.062,3.067,3.0688,3.0722,3.0713,3.0727,3.073,3.0734,3.0737,3.065,3.0729,3.0729,3.0729,3.0729,3.0728,0,3.0337,3.0358,3.0394,3.0437,3.0469,3.0464,3.0497,3.0523,3.0563,3.0591,3.0623,3.067,3.0708,3.073,3.0768,3.0791,3.0791,3.08,3.0799,3.0803,3.0742,3.0731,3.08,3.08,3.08,3.08,3.08,3.08,3.038,3.0432,3.0442,3.0506,3.0526,3.0571,3.059,3.0616,3.0638,3.0692,3.0724,3.0738,3.0763,3.0803,3.0837,3.0843,3.0857,3.0868,3.0872,3.0815,3.0808,3.0801,3.079,3.087,3.0871,3.093,3.0931,3.0931]}]]